STARLINK-32081 (60348 NORAD) Tracking and Keplerian Element Data

This shows tracking and keplerian element data for the satellite.

Feedback or suggestion? Click here.




ElementValue
Catalog60348
NameSTARLINK-32081
Epoch Orbit1113
Epoch Day286.74638235
Epoch Year2024
RAAN298.0162
Inclination53.1608
Eccentricity0.0001111
Argument of Perigee103.4749
Mean Anonmoly256.6375
Mean Motion15.30185473
Decay Rate2.11E-06
L11 60348U 24136V 24286.74638235 .00000211 00000+0 19259-4 0 9990
L22 60348 53.1608 298.0162 0001111 103.4749 256.6375 15.30185473 11133



Live tracking and technical data element details for STARLINK-32081 (NORAD 60348). STARLINK-32081 can be tracked NOW for your location showing map with azimuth and elevation plus other details from your city location.







IsCatalogInMostPopularTable: catalog: 60348, numindb: 9
Update: records affected: 1



GetName: 60348 STARLINK-32081

Hit Count: updated at: Tue, 03 Dec 2024 01:51:06 GMT